Weather Roundup
Issued by NWS Chicago, IL

Home | Current Version | Previous Version | Text Only | Print | Product List | Glossary On
Versions: 1 2 3 4 5 6 7 8 9 10 11 12 13 14 15 16 17 18 19 20 21 22 23 24 25 26 27 28 29 30 31 32 33 34 35 36 37 38 39 40 41 42 43 44 45 46 47 48 49 50
000
NZUS59 KLOT 311910
HRRLOT

CHICAGO AREA WEATHER ROUNDUP
NATIONAL WEATHER SERVICE CHICAGO/ROMEOVILLE IL
200 PM CDT THU JUL 31 2014

NOTE: "FAIR" INDICATES FEW OR NO CLOUDS BELOW 12,000 FEET WITH NO
SIGNIFICANT WEATHER AND/OR OBSTRUCTIONS TO VISIBILITY.

* THESE STATIONS ARE NOT UNDER NWS QUALITY CONTROL. THEY ALSO MAY NOT
  REPORT WEATHER SUCH AS PRECIPITATION OR FOG.

ILZ005-006-012>014-019>023-312000-
NORTHEAST ILLINOIS

CITY           SKY/WX    TMP DP  RH WIND       PRES   REMARKS
OHARE          MOSUNNY   84  54  35 W14       30.03S HX  83
MIDWAY         MOSUNNY   84  58  40 VRB7      30.03F HX  83
AURORA         MOSUNNY   81  60  48 W13       30.05F HX  82
LANSING*       PTSUNNY   82  59  46 W13G20    30.04F HX  82
JOLIET*        MOSUNNY   81  57  44 W9G17     30.06S HX  81
WAUKEGAN       MOSUNNY   82  58  43 VRB6      30.01F HX  82
DUPAGE AIRPORT MOSUNNY   82  57  42 W13       30.04S HX  82
WHEELING       MOSUNNY   83  55  38 W10G21    30.04S HX  82
KANKAKEE*      MOSUNNY   79  63  57 W9        30.07S HX  81
MORRIS*        MOSUNNY   82  63  53 W13       30.05F HX  83
LEWIS AIRPORT* CLOUDY    79  59  50 W12G21    30.05S HX  80
NORTHERLY IS     N/A     80  52  37 W10         N/A  HX  80
$$

WIZ051-052-058>065-066-070>072-312000-
SOUTHEAST WISCONSIN

CITY           SKY/WX    TMP DP  RH WIND       PRES   REMARKS
MILWAUKEE      PTSUNNY   80  56  43 W10       30.00F HX  80
KENOSHA*       PTSUNNY   79  60  52 W14       30.02S HX  80
RACINE*        SUNNY     82  56  40 W14G22    30.02S HX  82
BURLINGTON     MOSUNNY   79  58  48 W8G17     30.02S HX  80
WAUKESHA       MOSUNNY   75  59  57 W9G17     30.03S
WEST BEND      MOSUNNY   79  54  41 W13       30.00S
$$

INZ001>003-010>013-019-020-312000-
NORTHWEST INDIANA

CITY           SKY/WX    TMP DP  RH WIND       PRES   REMARKS
GARY*          MOSUNNY   82  57  42 W12       30.04F HX  82
MICHIGAN CITY* NOT AVBL
RENSSELAER*    NOT AVBL
VALPARAISO     PTSUNNY   80  59  48 SW15G21   30.06S HX  81
$$

LMZ740>746-312000-
SOUTHERN LAKE MICHIGAN

STATION/POSITION TIME  SKY/WX   TEMP WIND        PRES    VSBY
                                AIR  DIR/SP/G
                 (UTC)          (F)  (DEG/KT/KT) (MB)    (MI)
HARRISON CRIB    1800            77  250/ 11/ 15   N/A
BURNHAM HARBOR   1900            80  270/  5/ 13   N/A
CALUMET HARBOR   1900            81  230/  8/ 13 1015.6F
BURNS HARBOR     NOT AVBL
MICHIGAN CITY    1800            72  240/  7/  9   N/A
$$

ABBREVIATIONS USED IN REMARKS
   TC - TEMPERATURE IN CELSIUS
  WCI - WIND CHILL INDEX
   HX - HEAT INDEX
  VSB - VISIBILITY
$$


USA.gov is the U.S. government's official web portal to all federal, state and local government web resources and services.